Flag for U.S.A. Weather past 2 weeks in Coeur d'Alene, Idaho, U.S.A.

Now
45 °F

Sunny.


Feels Like: 37 °F
Forecast: 14 / 42 °F
Wind: 16 mph from Southwest

Location: Coeur d'Alene Weather Reporting System

Current Time: Mar 4, 2015 at 3:46:47 PM

Latest Report: Mar 4, 2015 at 3:15 PM


Visibility: 10 mi

Pressure: 30.22 "Hg

Humidity: 34%

Dew point: 18 °F

Location of Coeur d'AleneLocation

Historic Weather in Coeur d'Alene — Graph

°F

Coeur d'Alene temperature yesterday

Maximum temperature yesterday: 37 °F (at 1:55 PM)
Minimum temperature yesterday: 21 °F (at 3:15 AM)
Average temperature yesterday: 28 °F

Past Weeks' High & Low Weather Summary

 TemperatureHumidityPressure
High50 °F (Feb 17, 2:35 PM)100% (Feb 21, 12:15 AM)30.48 "Hg (Feb 21, 12:15 AM)
Low16 °F (Feb 22, 5:55 AM)22% (Feb 28, 2:55 PM)29.76 "Hg (Feb 27, 1:55 PM)
Average33 °F61%30.15 "Hg
* Reported Feb 17 2:15 PM — Mar 4 2:35 PM, Coeur d'Alene, Weather by CustomWeather, © 2015

Note: Actual official high and low records may vary slightly from our data, if they occured in-between our weather recording intervals... More about our weather records

Advertising

Coeur d'Alene weather history for previous 24 hours

 ConditionsComfort  
Time TempWeatherWind HumidityBarometerVisibility
2:35 PM
Wed, Mar 4
45 °FSunny.12 mph31%30.23 "Hg10 mi
2:15 PM45 °FSunny.14 mph31%30.23 "Hg10 mi
1:15 PM43 °FSunny.No wind34%30.24 "Hg10 mi
12:55 PM43 °FSunny.3 mph36%30.25 "Hg10 mi
12:35 PM39 °FSunny.6 mph42%30.26 "Hg10 mi
12:15 PM39 °FSunny.3 mph42%30.26 "Hg10 mi
11:55 AM39 °FSunny.5 mph42%30.27 "Hg10 mi
11:35 AM37 °FSunny.No wind45%30.27 "Hg10 mi
11:15 AM36 °FSunny.5 mph44%30.27 "Hg10 mi
10:55 AM36 °FSunny.No wind48%30.27 "Hg10 mi
10:35 AM34 °FSunny.6 mph48%30.27 "Hg10 mi
10:15 AM34 °FSunny.5 mph48%30.27 "Hg10 mi
9:55 AM34 °FSunny.6 mph48%30.28 "Hg10 mi
9:35 AM32 °FSunny.8 mph51%30.28 "Hg10 mi
8:55 AM28 °FSunny.6 mph69%30.27 "Hg10 mi
8:35 AM27 °FSunny.No wind74%30.27 "Hg10 mi
8:15 AM25 °FSunny.No wind80%30.27 "Hg10 mi
7:55 AM21 °FSunny.5 mph86%30.26 "Hg10 mi
7:35 AM19 °FSunny.6 mph73%30.24 "Hg10 mi
7:15 AM18 °FSunny.3 mph86%30.24 "Hg10 mi
6:55 AM16 °FSunny.No wind79%30.24 "Hg10 mi
6:35 AM16 °FSunny.No wind73%30.23 "Hg10 mi
6:15 AM16 °FClear.5 mph73%30.23 "Hg10 mi
5:55 AM16 °FClear.No wind73%30.23 "Hg10 mi
5:35 AM16 °FClear.No wind73%30.22 "Hg10 mi
5:15 AM16 °FClear.No wind73%30.22 "Hg10 mi
4:55 AM16 °FClear.No wind67%30.22 "Hg10 mi
4:35 AM16 °FClear.3 mph73%30.21 "Hg10 mi
4:15 AM18 °FClear.3 mph79%30.21 "Hg10 mi
3:55 AM16 °FClear.3 mph73%30.21 "Hg10 mi
3:35 AM19 °FClear.3 mph68%30.20 "Hg10 mi
3:15 AM21 °FClear.No wind68%30.20 "Hg10 mi
2:55 AM21 °FClear.No wind63%30.20 "Hg10 mi
2:35 AM23 °FClear.5 mph68%30.20 "Hg10 mi
2:15 AM25 °FClear.8 mph69%30.20 "Hg10 mi
1:55 AM25 °FClear.8 mph69%30.19 "Hg10 mi
1:35 AM23 °FClear.7 mph74%30.19 "Hg10 mi
1:15 AM21 °FClear.6 mph74%30.19 "Hg10 mi
12:55 AM25 °FClear.7 mph69%30.19 "Hg10 mi
12:35 AM23 °FClear.8 mph63%30.18 "Hg10 mi
12:15 AM23 °FClear.6 mph68%30.17 "Hg10 mi
11:55 PM
Tue, Mar 3
23 °FClear.No wind58%30.17 "Hg10 mi
11:35 PM27 °FClear.No wind54%30.17 "Hg10 mi
11:15 PM25 °FClear.No wind54%30.16 "Hg10 mi
10:55 PM25 °FClear.No wind59%30.15 "Hg10 mi
10:35 PM27 °FClear.3 mph54%30.15 "Hg10 mi
10:15 PM27 °FClear.5 mph54%30.15 "Hg10 mi
9:55 PM27 °FClear.6 mph54%30.14 "Hg10 mi
9:35 PM27 °FClear.6 mph54%30.14 "Hg10 mi
9:15 PM27 °FClear.7 mph54%30.14 "Hg10 mi
8:55 PM28 °FClear.6 mph51%30.14 "Hg10 mi
8:35 PM28 °FClear.7 mph55%30.13 "Hg10 mi
8:15 PM27 °FClear.No wind50%30.12 "Hg10 mi
7:15 PM28 °FClear.6 mph47%30.11 "Hg10 mi
6:55 PM28 °FClear.5 mph47%30.11 "Hg10 mi
6:35 PM28 °FClear.3 mph51%30.11 "Hg10 mi
6:15 PM28 °FClear.3 mph51%30.11 "Hg10 mi
5:55 PM30 °FClear.5 mph55%30.11 "Hg10 mi
5:35 PM32 °FClear.6 mph44%30.10 "Hg10 mi
5:15 PM34 °FSunny.6 mph38%30.10 "Hg10 mi
4:55 PM36 °FSunny.10 mph35%30.10 "Hg10 mi
4:35 PM37 °FSunny.10 mph33%30.10 "Hg10 mi
4:15 PM37 °FSunny.14 mph33%30.09 "Hg10 mi
3:55 PM37 °FSunny.13 mph33%30.10 "Hg10 mi
3:35 PM37 °FSunny.9 mph33%30.10 "Hg10 mi
3:15 PM37 °FPassing clouds.10 mph33%30.10 "Hg10 mi
Weather by CustomWeather, © 2015

See weather overviewHow to use our weather pages